De Quincy Industrial Air Park, LA

7:02 AM CDT on July 22, 2017 (GMT -0500)
De Quincy Industrial Air Park

Weather History for K5R8 - May, 2014

Change the Weather History Date:

Sunday, May 4, 2014

  Actual Average (KCWF) Record (KCWF)
Temperature  
Mean Temperature 68 °F -  
Max Temperature 85 °F 82 °F 93 °F (2002)
Min Temperature 51 °F 67 °F 44 °F (2013)
Cooling Degree Days 3    
Growing Degree Days 18 (Base 50)    
Moisture  
Dew Point 54 °F    
Average Humidity 65    
Maximum Humidity 97    
Minimum Humidity 29    
Precipitation  
Precipitation 0.00 in - - ()
Sea Level Pressure  
Sea Level Pressure 30.10 in    
Wind  
Wind Speed 3 mph (South)    
Max Wind Speed 13 mph    
Max Gust Speed 18 mph    
Visibility 10 miles    
Events      
Averages and records for this station are not official NWS values.
T = Trace of Precipitation, MM = Missing Value Source: NWS Daily Summary

Daily Weather History Graph

Daily Weather History Graph

Search for Another Location

Airport or City:

Trip Planner

Search our weather history database for the weather conditions in past years. The results will help you decide how hot, cold, wet, or windy it might be!

Date:

Astronomy

May. 04, 2014 Rise Set
Actual Time 6:27 AM CDT 7:53 PM CDT
Civil Twilight 6:02 AM CDT 8:19 PM CDT
Nautical Twilight 5:31 AM CDT 8:50 PM CDT
Astronomical Twilight 4:59 AM CDT 9:22 PM CDT
Moon 10:53 AM CDT (5/4) No Moon Set
Length of Visible Light 14h 17m
Length of Day
13h 26m
Waxing Crescent, 28% of the Moon is Illuminated
May 4
Waxing Crescent
May 6
First Quarter
May 14
Full
May 21
Last Quarter
May 28
New

Hourly Weather History & Observations

Time (CDT) Temp. Heat Index Dew Point Humidity Pressure Visibility Wind Dir Wind Speed Gust Speed Precip Events Conditions
12:15 AM 61.7 °F - 56.7 °F 84% 30.10 in 10.0 mi Calm Calm - N/A   Clear
12:35 AM 61.0 °F - 56.5 °F 85% 30.10 in 10.0 mi Calm Calm - N/A   Clear
12:55 AM 58.6 °F - 55.6 °F 90% 30.11 in 10.0 mi Calm Calm - N/A   Clear
1:15 AM 57.9 °F - 55.6 °F 92% 30.11 in 10.0 mi Calm Calm - N/A   Clear
1:35 AM 56.7 °F - 55.0 °F 94% 30.11 in 10.0 mi Calm Calm - N/A   Clear
1:55 AM 57.9 °F - 55.2 °F 91% 30.10 in 10.0 mi Calm Calm - N/A   Clear
2:15 AM 59.4 °F - 56.3 °F 90% 30.10 in 10.0 mi SSW 3.5 mph - N/A   Clear
2:35 AM 60.3 °F - 56.7 °F 88% 30.10 in 10.0 mi Calm Calm - N/A   Clear
2:55 AM 57.4 °F - 54.7 °F 91% 30.10 in 10.0 mi Calm Calm - N/A   Clear
3:15 AM 55.8 °F - 53.8 °F 93% 30.10 in 10.0 mi Calm Calm - N/A   Clear
3:35 AM 54.9 °F - 53.2 °F 94% 30.09 in 10.0 mi Calm Calm - N/A   Clear
3:55 AM 54.3 °F - 53.2 °F 96% 30.09 in 10.0 mi Calm Calm - N/A   Clear
4:15 AM 54.9 °F - 53.6 °F 96% 30.09 in 10.0 mi Calm Calm - N/A   Clear
4:35 AM 54.3 °F - 52.7 °F 94% 30.10 in 10.0 mi Calm Calm - N/A   Clear
4:55 AM 53.8 °F - 52.5 °F 95% 30.10 in 10.0 mi Calm Calm - N/A   Clear
5:15 AM 53.2 °F - 51.8 °F 95% 30.10 in 10.0 mi Calm Calm - N/A   Clear
5:35 AM 53.1 °F - 51.6 °F 95% 30.11 in 10.0 mi Calm Calm - N/A   Clear
5:55 AM 52.7 °F - 51.3 °F 95% 30.12 in 10.0 mi Calm Calm - N/A   Clear
6:15 AM 52.5 °F - 51.1 °F 95% 30.12 in 10.0 mi Calm Calm - N/A   Clear
6:35 AM 52.0 °F - 50.9 °F 96% 30.13 in 10.0 mi Calm Calm - N/A   Clear
6:55 AM 51.8 °F - 50.9 °F 97% 30.13 in 10.0 mi Calm Calm - N/A   Mostly Cloudy
7:15 AM 52.9 °F - 51.6 °F 95% 30.14 in 10.0 mi Calm Calm - N/A   Overcast
7:35 AM 54.9 °F - 53.4 °F 95% 30.14 in 10.0 mi Calm Calm - N/A   Overcast
8:00 AM 59.5 °F - 57.9 °F 94% 30.14 in 10.0 mi Calm Calm - N/A   Mostly Cloudy
8:15 AM 62.8 °F - 60.4 °F 92% 30.14 in 10.0 mi Calm Calm - N/A   Scattered Clouds
8:35 AM 65.5 °F - 60.4 °F 84% 30.15 in 10.0 mi Calm Calm - N/A   Clear
8:55 AM 68.0 °F - 59.5 °F 74% 30.15 in 10.0 mi WSW 4.6 mph - N/A   Clear
9:15 AM 70.3 °F - 58.3 °F 66% 30.15 in 10.0 mi SW 6.9 mph - N/A   Clear
9:35 AM 72.0 °F - 57.0 °F 59% 30.15 in 10.0 mi WSW 5.8 mph - N/A   Clear
10:00 AM 73.6 °F - 54.0 °F 50% 30.16 in 10.0 mi West 10.4 mph - N/A   Clear
10:15 AM 74.8 °F - 54.9 °F 50% 30.16 in 10.0 mi West 8.1 mph - N/A   Clear
10:40 AM 76.1 °F - 52.2 °F 43% 30.16 in 10.0 mi WSW 10.4 mph 16.1 mph N/A   Clear
10:55 AM 77.5 °F - 52.5 °F 42% 30.15 in 10.0 mi WSW 9.2 mph - N/A   Clear
11:15 AM 78.3 °F - 53.2 °F 42% 30.15 in 10.0 mi SW 6.9 mph - N/A   Clear
11:35 AM 79.5 °F - 52.2 °F 38% 30.15 in 10.0 mi SW 6.9 mph - N/A   Clear
11:55 AM 79.9 °F - 51.6 °F 37% 30.14 in 10.0 mi WSW 5.8 mph - N/A   Clear
12:15 PM 81.1 °F - 50.7 °F 35% 30.13 in 10.0 mi South 10.4 mph - N/A   Clear
12:35 PM 81.3 °F - 52.0 °F 36% 30.12 in 10.0 mi SW 5.8 mph - N/A   Clear
12:55 PM 82.0 °F - 52.7 °F 36% 30.12 in 10.0 mi SSW 9.2 mph - N/A   Clear
1:15 PM 82.4 °F - 51.3 °F 34% 30.11 in 10.0 mi South 10.4 mph - N/A   Clear
1:35 PM 83.5 °F - 50.2 °F 31% 30.11 in 10.0 mi SSW 9.2 mph - N/A   Clear
1:55 PM 83.3 °F - 50.9 °F 32% 30.10 in 10.0 mi SSW 9.2 mph - N/A   Clear
2:15 PM 84.0 °F - 52.5 °F 34% 30.09 in 10.0 mi South 10.4 mph 16.1 mph N/A   Clear
2:35 PM 84.7 °F 83.1 °F 53.2 °F 34% 30.09 in 10.0 mi South 10.4 mph 16.1 mph N/A   Clear
2:55 PM 84.6 °F - 51.1 °F 31% 30.08 in 10.0 mi SSE 8.1 mph 16.1 mph N/A   Clear
3:15 PM 84.9 °F - 51.6 °F 32% 30.07 in 10.0 mi South 10.4 mph - N/A   Clear
3:35 PM 85.3 °F - 50.4 °F 30% 30.07 in 10.0 mi South 10.4 mph 16.1 mph N/A   Clear
4:15 PM 84.9 °F - 49.1 °F 29% 30.06 in 10.0 mi South 12.7 mph 16.1 mph N/A   Clear
4:35 PM 84.7 °F - 49.8 °F 30% 30.06 in 10.0 mi South 11.5 mph - N/A   Clear
4:55 PM 84.2 °F - 48.4 °F 29% 30.06 in 10.0 mi South 8.1 mph 18.4 mph N/A   Clear
5:15 PM 84.2 °F - 48.2 °F 29% 30.06 in 10.0 mi South 9.2 mph - N/A   Clear
5:35 PM 83.1 °F - 48.9 °F 30% 30.05 in 10.0 mi South 11.5 mph 17.3 mph N/A   Clear
5:55 PM 82.4 °F - 49.3 °F 31% 30.05 in 10.0 mi South 10.4 mph 16.1 mph N/A   Clear
6:15 PM 81.5 °F - 47.8 °F 31% 30.05 in 10.0 mi South 11.5 mph - N/A   Clear
6:35 PM 80.4 °F - 47.7 °F 32% 30.05 in 10.0 mi South 9.2 mph - N/A   Clear
6:55 PM 78.4 °F - 53.4 °F 42% 30.05 in 10.0 mi South 9.2 mph - N/A   Clear
7:15 PM 76.5 °F - 54.9 °F 47% 30.05 in 10.0 mi South 9.2 mph - N/A   Clear
7:35 PM 74.5 °F - 55.0 °F 51% 30.06 in 10.0 mi South 9.2 mph - N/A   Clear
7:55 PM 72.1 °F - 55.0 °F 55% 30.06 in 10.0 mi South 5.8 mph - N/A   Clear
8:15 PM 70.3 °F - 55.4 °F 59% 30.06 in 10.0 mi South 4.6 mph - N/A   Clear
8:35 PM 68.2 °F - 55.6 °F 64% 30.07 in 10.0 mi South 4.6 mph - N/A   Clear
8:55 PM 67.3 °F - 55.8 °F 66% 30.07 in 10.0 mi South 4.6 mph - N/A   Clear
9:15 PM 65.5 °F - 55.8 °F 71% 30.08 in 10.0 mi South 4.6 mph - N/A   Clear
9:35 PM 64.8 °F - 55.9 °F 73% 30.08 in 10.0 mi South 4.6 mph - N/A   Clear
9:55 PM 63.7 °F - 55.9 °F 76% 30.09 in 10.0 mi SSE 4.6 mph - N/A   Clear
10:15 PM 63.5 °F - 56.3 °F 77% 30.09 in 10.0 mi SSE 4.6 mph - N/A   Clear
10:35 PM 62.6 °F - 56.3 °F 80% 30.10 in 10.0 mi SSE 3.5 mph - N/A   Clear
10:55 PM 60.3 °F - 55.6 °F 85% 30.10 in 10.0 mi SSE 4.6 mph - N/A   Clear
11:15 PM 60.8 °F - 55.9 °F 84% 30.10 in 10.0 mi SSE 3.5 mph - N/A   Clear
11:35 PM 59.4 °F - 55.4 °F 87% 30.10 in 10.0 mi SSE 4.6 mph - N/A   Clear
11:55 PM 58.3 °F - 55.2 °F 90% 30.10 in 10.0 mi Calm Calm - N/A   Clear